Погода в Хомутове

Россия / Иркутская область     52°27′55″N   104°21′43″E
темп.,
°C
ветер,
м/с
пор.,
м/с
влажн.,
%
обл.,
%
осадки,
мм/ч
давл.,
гПа
погр.,
м
19 января, вт
вт1923:00−14вюв338833 0.0 101432
02:00−13юв358817 0.0 101267
05:00−11ююв348650 0.0 100966
08:00−10ю128442 0.0 100846
11:00−8вюв1184100 0.0 100824
14:00−6сз578372 0.0 1010532
17:00−10сз338737 0.0 101231
20:00−13ссз229062 0.0 101421
20 января, ср
ср2023:00−11с3690100 0.1 1016201
02:00−14с1192100 0.1 101820
05:00−15юв0195100 0.1 101920
08:00−17вюв239487 0.1 102020
11:00−15вюв229143 0.0 101881
14:00−12ссв239154 0.0 1018188
17:00−14сз5108599 0.1 1023531
20:00−20сз488694 0.1 1032161
21 января, чт
чт2123:00−24зсз339298 0.0 103629
02:00−28сз009166 0.0 103619
05:00−29в118720 0.0 103619
08:00−30св128610 0.0 103619
11:00−27св23870 0.0 1034100
14:00−22всв23850 0.0 1030193
17:00−23всв33900 0.0 102849
20:00−21всв359332 0.0 102775
22 января, пт
пт2223:00−21всв349195 0.0 102465
02:00−20всв349196 0.0 102260
05:00−19всв2390100 0.0 102129
08:00−20всв339089 0.0 102135
11:00−16в468839 0.0 1018161
14:00−10вюв478747 0.0 1013340
17:00−9вюв488899 0.0 1011178
20:00−13вюв358698 0.0 101076
23 января, сб
сб2323:00−12юв4885100 0.0 1009131
02:00−11в2388100 0.0 101126
05:00−14з229294 0.0 101423
08:00−15з129794 0.0 101720
11:00−12ююв119497 0.0 101840
14:00−10с229398 0.1 1017278
17:00−9зсз3595100 2.6 1019293
20:00−11зсз5895100 3.8 1023311